Orbital Elements at Epoch 2459200.5 (2020-Dec-17.0) TDB
Reference: JPL 30 (heliocentric ecliptic J2000)
Element | Value | Uncertainty (1-sigma) | Units |
e | .1899321851005596 | 4.4193e-08 | |
a | 2.569865131860153 | 9.9632e-09 | au |
q | 2.081765031952216 | 1.1228e-07 | au |
i | 11.94190889724776 | 4.5728e-06 | deg |
node | 206.7081754403999 | 2.2236e-05 | deg |
peri | 139.4935050512478 | 2.5235e-05 | deg |
M | 162.46992615748 | 1.5515e-05 | deg |
tp | 2458521.398942100659 (2019-Feb-06.89894210) | 6.2418e-05 | TDB |
period | 1504.748519469351 4.12 | 8.7507e-06 2.396e-08 | d yr |
n | .2392426344615736 | 1.3913e-09 | deg/d |
Q | 3.057965231768089 | 1.1856e-08 | au |
|
| | Orbit Determination Parameters
Additional Information
|